• In Romania
  • List of Countries
  • For 7 days
  • Water Temperature
  • Satellite Maps
  • Weather Map
  • Weather Widgets
  • user-avatar
    Login

    Hourly Weather Velika Gorica

    Today, 16 December, Saturday

    Time Temperature Precipitation Wind Pressure Humidity
    00:00 +4°C° 1.1 mm 2 mps 739 mmHg 86%
    01:00 +4°C° 0 mm 1 mps 740 mmHg 89%
    02:00 +4°C° 0.7 mm 1 mps 740 mmHg 90%
    03:00 +4°C° 0.7 mm 1 mps 740 mmHg 91%
    04:00 +4°C° 0.7 mm 1 mps 740 mmHg 92%
    05:00 +4°C° 0.3 mm 1 mps 741 mmHg 93%
    06:00 +4°C° 0.3 mm 1 mps 741 mmHg 93%
    07:00 +4°C° 0.3 mm 1 mps 742 mmHg 94%
    08:00 +4°C° 0.2 mm 1 mps 743 mmHg 92%
    09:00 +5°C° 0.2 mm 1 mps 743 mmHg 91%
    10:00 +5°C° 0.2 mm 1 mps 744 mmHg 90%
    11:00 +6°C° 0 mm 1 mps 744 mmHg 88%
    12:00 +6°C° 0 mm 1 mps 745 mmHg 86%
    13:00 +7°C° 0 mm 1 mps 745 mmHg 83%
    14:00 +6°C° 0 mm 1 mps 746 mmHg 86%
    15:00 +5°C° 0 mm 0 mps 746 mmHg 88%
    16:00 +4°C° 0 mm 0 mps 746 mmHg 90%
    17:00 +4°C° 0 mm 0 mps 747 mmHg 91%
    18:00 +3°C° 0 mm 0 mps 747 mmHg 92%
    19:00 +3°C° 0 mm 0 mps 748 mmHg 93%
    20:00 +2°C° 0 mm 0 mps 748 mmHg 92%
    21:00 +2°C° 0 mm 0 mps 749 mmHg 92%
    22:00 +2°C° 0 mm 0 mps 749 mmHg 92%
    23:00 +2°C° 0 mm 0 mps 750 mmHg 92%

    Tomorrow, 17 December, Sunday

    Time Temperature Precipitation Wind Pressure Humidity
    00:00 +2°C° 0 mm 1 mps 750 mmHg 92%
    01:00 +2°C° 0 mm 1 mps 750 mmHg 91%
    02:00 +2°C° 0 mm 1 mps 751 mmHg 91%
    03:00 +2°C° 0 mm 1 mps 751 mmHg 91%
    04:00 +2°C° 0 mm 1 mps 751 mmHg 91%
    05:00 +2°C° 0 mm 1 mps 752 mmHg 91%
    06:00 +2°C° 0 mm 1 mps 752 mmHg 91%
    07:00 +2°C° 0 mm 1 mps 753 mmHg 91%
    08:00 +2°C° 0 mm 1 mps 753 mmHg 88%
    09:00 +3°C° 0 mm 1 mps 754 mmHg 86%
    10:00 +4°C° 0 mm 1 mps 754 mmHg 83%
    11:00 +5°C° 0 mm 1 mps 754 mmHg 80%
    12:00 +5°C° 0 mm 1 mps 754 mmHg 78%
    13:00 +6°C° 0 mm 1 mps 754 mmHg 76%
    14:00 +5°C° 0 mm 1 mps 754 mmHg 79%
    15:00 +4°C° 0 mm 1 mps 754 mmHg 82%
    16:00 +3°C° 0 mm 0 mps 755 mmHg 85%
    17:00 +3°C° 0 mm 1 mps 755 mmHg 86%
    18:00 +3°C° 0 mm 1 mps 756 mmHg 86%
    19:00 +2°C° 0 mm 1 mps 756 mmHg 87%
    20:00 +2°C° 0 mm 1 mps 757 mmHg 87%
    21:00 +2°C° 0 mm 1 mps 757 mmHg 86%
    22:00 +1°C° 0 mm 1 mps 758 mmHg 85%
    23:00 +1°C° 0 mm 1 mps 758 mmHg 85%

    Day after tomorrow, 18 December, Monday

    Time Temperature Precipitation Wind Pressure Humidity
    00:00 +1°C° 0 mm 1 mps 758 mmHg 84%
    01:00 +1°C° 0 mm 1 mps 758 mmHg 83%
    02:00 +1°C° 0 mm 1 mps 758 mmHg 82%
    03:00 0°C° 0 mm 1 mps 758 mmHg 81%
    04:00 0°C° 0 mm 1 mps 758 mmHg 81%
    05:00 0°C° 0 mm 1 mps 758 mmHg 80%
    06:00 0°C° 0 mm 1 mps 758 mmHg 80%
    07:00 -1°C° 0 mm 0 mps 759 mmHg 80%
    08:00 0°C° 0 mm 0 mps 759 mmHg 76%
    09:00 +1°C° 0 mm 0 mps 759 mmHg 73%
    10:00 +2°C° 0 mm 0 mps 759 mmHg 70%
    11:00 +4°C° 0 mm 1 mps 758 mmHg 68%
    12:00 +4°C° 0 mm 1 mps 758 mmHg 66%
    13:00 +5°C° 0 mm 1 mps 757 mmHg 64%
    14:00 +4°C° 0 mm 1 mps 757 mmHg 69%
    15:00 +3°C° 0 mm 1 mps 757 mmHg 73%
    16:00 +1°C° 0 mm 0 mps 757 mmHg 78%
    17:00 +1°C° 0 mm 0 mps 758 mmHg 79%
    18:00 +1°C° 0 mm 0 mps 758 mmHg 80%
    19:00 +1°C° 0 mm 0 mps 758 mmHg 81%
    20:00 +1°C° 0 mm 0 mps 759 mmHg 83%
    21:00 0°C° 0 mm 0 mps 759 mmHg 84%
    22:00 0°C° 0 mm 0 mps 760 mmHg 85%
    23:00 0°C° 0 mm 0 mps 760 mmHg 86%

    19 December, Tuesday

    Time Temperature Precipitation Wind Pressure Humidity
    00:00 0°C° 0 mm 0 mps 761 mmHg 86%
    01:00 -1°C° 0 mm 0 mps 761 mmHg 87%
    02:00 -1°C° 0 mm 0 mps 761 mmHg 87%
    03:00 -1°C° 0 mm 0 mps 762 mmHg 87%
    04:00 -1°C° 0 mm 0 mps 762 mmHg 88%
    05:00 -1°C° 0 mm 0 mps 762 mmHg 88%
    06:00 -1°C° 0 mm 0 mps 763 mmHg 88%
    07:00 -1°C° 0 mm 0 mps 764 mmHg 88%
    08:00 0°C° 0 mm 0 mps 764 mmHg 84%
    09:00 +1°C° 0 mm 0 mps 764 mmHg 80%
    10:00 +2°C° 0 mm 0 mps 765 mmHg 76%
    11:00 +2°C° 0 mm 0 mps 765 mmHg 73%
    12:00 +3°C° 0 mm 0 mps 765 mmHg 70%
    13:00 +3°C° 0 mm 0 mps 764 mmHg 67%
    14:00 +2°C° 0 mm 0 mps 764 mmHg 71%
    15:00 +2°C° 0 mm 0 mps 764 mmHg 75%
    16:00 +1°C° 0 mm 0 mps 764 mmHg 79%
    17:00 0°C° 0 mm 0 mps 765 mmHg 80%
    18:00 0°C° 0 mm 0 mps 765 mmHg 82%
    19:00 -1°C° 0 mm 0 mps 765 mmHg 83%
    20:00 -1°C° 0 mm 0 mps 766 mmHg 84%
    21:00 -1°C° 0 mm 0 mps 766 mmHg 84%
    22:00 -1°C° 0 mm 0 mps 767 mmHg 85%
    23:00 -1°C° 0 mm 0 mps 767 mmHg 85%

    20 December, Wednesday

    Time Temperature Precipitation Wind Pressure Humidity
    00:00 -1°C° 0 mm 0 mps 767 mmHg 85%
    01:00 -1°C° 0 mm 0 mps 767 mmHg 85%
    02:00 -1°C° 0 mm 0 mps 766 mmHg 85%
    03:00 0°C° 0 mm 1 mps 766 mmHg 86%
    04:00 0°C° 0 mm 1 mps 766 mmHg 86%
    05:00 0°C° 0 mm 1 mps 766 mmHg 86%
    06:00 0°C° 0 mm 1 mps 766 mmHg 86%
    07:00 0°C° 0 mm 1 mps 767 mmHg 85%
    08:00 +1°C° 0 mm 1 mps 767 mmHg 82%
    09:00 +1°C° 0 mm 1 mps 767 mmHg 78%
    10:00 +2°C° 0 mm 1 mps 767 mmHg 74%
    11:00 +3°C° 0 mm 1 mps 766 mmHg 73%
    12:00 +4°C° 0 mm 1 mps 766 mmHg 71%
    13:00 +3°C° 0 mm 2 mps 765 mmHg 70%
    14:00 +4°C° 0 mm 1 mps 765 mmHg 73%
    15:00 +3°C° 0 mm 1 mps 765 mmHg 77%
    16:00 +3°C° 0 mm 1 mps 765 mmHg 81%
    17:00 +3°C° 0.1 mm 1 mps 764 mmHg 81%
    18:00 +3°C° 0.1 mm 1 mps 764 mmHg 81%
    19:00 +3°C° 0.1 mm 1 mps 764 mmHg 81%
    20:00 +3°C° 0.1 mm 1 mps 764 mmHg 81%
    21:00 +2°C° 0.1 mm 2 mps 764 mmHg 81%
    22:00 +2°C° 0.1 mm 2 mps 764 mmHg 81%
    23:00 +3°C° 0.1 mm 1 mps 764 mmHg 81%

    21 December, Thursday

    Time Temperature Precipitation Wind Pressure Humidity
    00:00 +3°C° 0.1 mm 1 mps 763 mmHg 82%
    01:00 +3°C° 0.1 mm 1 mps 763 mmHg 82%
    02:00 +3°C° 0.1 mm 1 mps 763 mmHg 83%
    03:00 +3°C° 0.1 mm 1 mps 763 mmHg 83%
    04:00 +3°C° 0.1 mm 1 mps 763 mmHg 84%
    05:00 +3°C° 0.1 mm 1 mps 763 mmHg 83%
    06:00 +3°C° 0.1 mm 1 mps 763 mmHg 82%
    07:00 +4°C° 0.1 mm 1 mps 763 mmHg 82%
    08:00 +4°C° 0 mm 1 mps 763 mmHg 80%
    09:00 +5°C° 0 mm 1 mps 763 mmHg 78%
    10:00 +6°C° 0 mm 1 mps 764 mmHg 77%
    11:00 +7°C° 0 mm 1 mps 763 mmHg 76%
    12:00 +8°C° 0 mm 1 mps 763 mmHg 76%
    13:00 +9°C° 0 mm 1 mps 763 mmHg 75%
    14:00 +8°C° 0 mm 1 mps 762 mmHg 78%
    15:00 +7°C° 0 mm 1 mps 762 mmHg 82%
    16:00 +6°C° 0 mm 1 mps 762 mmHg 85%
    17:00 +6°C° 0 mm 1 mps 762 mmHg 85%
    18:00 +6°C° 0 mm 1 mps 762 mmHg 85%
    19:00 +6°C° 0 mm 1 mps 762 mmHg 86%
    20:00 +6°C° 0 mm 1 mps 762 mmHg 86%
    21:00 +6°C° 0 mm 1 mps 762 mmHg 86%
    22:00 +6°C° 0 mm 1 mps 762 mmHg 86%
    23:00 +5°C° 0 mm 1 mps 762 mmHg 86%
    Show more